Temp
4 4 4 5 5 5 5 5 5 5 5 6 6 6 6 6 6 6 5 6 6 6 6 6 7 6 7 7 7 6 7 7 7 7 7 7 7 7 7 6 7 7 8 8 8 8 8
3 3 4 4 4 4 4 5 5 5 5 5 5 5 5 5 6 5 5 5 5 5 5 6 6 6 6 6 7 6 7 7 7 7 7 7 6 5 5 6 6 7 7 7 8 9 8
3 3 3 3 4 4 4 4 4 4 4 4 4 5 5 5 4 4 4 4 4 4 5 5 5 5 6 7 6 6 6 6 7 7 7 7 6 6 5 5 5 7 7 8 8 9 9
3 3 3 3 3 3 3 3 4 4 4 4 4 4 4 4 4 4 4 4 3 4 4 4 4 5 6 6 6 6 7 7 7 7 7 7 6 6 5 4 5 4 5 6 9 9 9
3 3 3 3 3 3 3 3 3 3 3 3 3 4 3 3 3 3 3 3 2 4 4 4 4 4 5 6 6 7 7 7 7 7 6 7 7 6 4 5 4 3 5 7 7 7 7
2 2 3 3 3 2 2 2 3 3 3 3 3 3 3 3 3 3 3 2 3 3 3 4 4 4 5 6 6 6 5 6 6 6 6 6 6 5 5 5 3 5 6 7 6 5 5
2 2 3 3 3 2 2 2 2 2 2 2 3 3 3 2 2 2 2 2 2 2 3 4 3 4 4 5 4 5 5 5 5 5 6 5 5 6 7 6 5 4 4 4 3 3 3
1 2 2 2 3 2 3 2 2 2 2 1 2 3 2 2 2 2 2 2 2 2 3 3 3 4 4 4 4 5 5 4 4 5 5 5 6 5 5 4 3 3 2 3 4 3 2
2 2 2 2 2 3 2 2 1 2 2 2 1 1 2 1 2 1 1 1 2 2 2 3 3 4 4 4 4 5 4 4 4 3 4 4 4 5 3 2 2 3 2 3 2 2 2
1 2 2 2 3 3 3 2 2 1 1 1 1 1 1 1 1 1 1 1 1 1 1 2 3 3 3 4 3 3 4 4 2 3 3 3 2 3 3 2 1 3 2 2 1 1 1
-0 1 2 2 2 2 2 2 2 2 2 2 1 1 1 1 1 0 0 -0 -0 0 -3 2 1 1 2 3 2 1 2 2 3 2 2 3 4 3 2 2 2 2 1 1 1 1 1
2 3 1 1 1 1 2 2 1 2 1 1 0 -0 0 1 -0 -1 -3 -3 -2 -1 -2 0 0 1 1 1 1 1 1 1 1 2 1 2 2 2 2 2 1 1 1 0 1 1 0
2 3 2 1 0 2 2 1 1 1 1 1 0 -0 -1 -1 -1 -2 -5 -5 -3 -2 -1 -1 -1 -0 0 -0 -0 -1 -0 -0 -0 -0 1 1 2 2 2 1 1 1 0 -1 -1 -1 1
-2 1 1 1 1 1 1 1 1 -0 -0 -1 -1 -2 -2 -2 -3 -6 -6 -6 -6 -4 -1 -1 -1 -1 -1 -0 -0 -1 -0 -0 -0 -0 -1 -1 0 1 -1 -0 -1 -1 -0 -1 -1 1 2
-3 -2 -2 -2 -2 -2 -1 -2 -2 -2 -2 -3 -3 -4 -4 -4 -5 -5 -5 -6 -4 -3 -3 -2 -1 -2 -2 -1 -1 -1 -1 -1 -1 -1 -2 -2 -1 -0 -1 -1 -1 -1 -1 -0 -1 -1 -1
-4 -3 -2 -2 -2 -3 -2 -2 -2 -3 -3 -3 -4 -6 -6 -6 -6 -6 -6 -6 -6 -5 -4 -3 -3 -3 -3 -3 -3 -3 -3 -4 -4 -4 -4 -4 -4 -2 -2 -2 -2 -3 -2 -2 -1 -1 -1
-4 -4 -4 -3 -3 -3 -3 -3 -3 -3 -4 -5 -6 -6 -6 -6 -7 -6 -6 -6 -7 -5 -5 -4 -4 -4 -4 -4 -5 -5 -4 -5 -4 -5 -4 -5 -5 -3 -3 -4 -3 -4 -4 -4 -5 -4 -5
-5 -5 -5 -4 -4 -4 -4 -4 -4 -4 -5 -6 -6 -6 -6 -6 -7 -7 -7 -7 -7 -6 -5 -5 -5 -5 -5 -6 -6 -6 -6 -6 -5 -5 -6 -6 -6 -6 -5 -3 -4 -4 -5 -7 -6 -5 -5
-6 -6 -6 -5 -5 -5 -5 -5 -5 -5 -6 -5 -6 -6 -7 -6 -7 -6 -7 -7 -7 -6 -6 -6 -6 -6 -6 -6 -6 -6 -6 -6 -6 -6 -6 -6 -7 -7 -5 -5 -5 -5 -5 -5 -7 -7 -5
-8 -6 -6 -6 -6 -6 -6 -6 -6 -6 -6 -6 -7 -7 -8 -7 -7 -7 -7 -7 -7 -6 -7 -7 -6 -6 -7 -7 -7 -7 -7 -7 -6 -7 -7 -6 -7 -7 -7 -6 -6 -7 -6 -6 -7 -7 -6
-9 -8 -7 -7 -7 -7 -7 -7 -7 -7 -7 -7 -7 -7 -7 -7 -7 -7 -7 -7 -7 -8 -8 -7 -7 -7 -7 -7 -8 -8 -7 -7 -7 -6 -7 -8 -8 -7 -7 -7 -6 -7 -6 -5 -8 -6 -7
-8 -8 -8 -8 -8 -8 -7 -8 -8 -8 -8 -8 -7 -8 -8 -7 -7 -7 -8 -7 -8 -7 -7 -7 -7 -7 -8 -8 -8 -8 -8 -8 -8 -8 -8 -8 -8 -8 -8 -7 -7 -8 -6 -4 -5 -6 -7
-9 -9 -9 -8 -8 -9 -8 -8 -8 -8 -8 -8 -8 -8 -9 -9 -8 -8 -7 -7 -7 -7 -7 -7 -8 -9 -9 -8 -8 -9 -8 -9 -9 -8 -9 -9 -9 -9 -9 -8 -9 -9 -5 -5 -6 -6 -6
-10 -10 -10 -10 -9 -9 -9 -9 -8 -9 -8 -8 -8 -9 -8 -9 -9 -7 -7 -7 -8 -8 -8 -9 -9 -9 -8 -9 -9 -9 -9 -9 -9 -8 -10 -10 -9 -10 -10 -10 -13 -7 -7 -7 -7 -6 -6
-10 -10 -10 -10 -10 -10 -9 -9 -9 -9 -9 -9 -9 -9 -8 -9 -9 -9 -9 -9 -9 -9 -9 -9 -9 -9 -9 -9 -10 -10 -9 -9 -8 -8 -9 -9 -10 -11 -11 -10 -9 -8 -8 -8 -8 -7 -7
-10 -10 -10 -10 -10 -10 -10 -10 -9 -9 -9 -9 -9 -9 -9 -9 -9 -10 -10 -9 -9 -9 -9 -9 -9 -10 -10 -10 -10 -10 -9 -9 -9 -9 -9 -9 -10 -11 -11 -11 -11 -8 -8 -8 -8 -8 -8
-10 -10 -11 -11 -10 -11 -11 -11 -10 -10 -10 -10 -10 -9 -10 -10 -10 -10 -10 -9 -10 -10 -10 -9 -10 -10 -10 -11 -11 -11 -10 -10 -10 -9 -9 -10 -10 -10 -11 -11 -10 -9 -9 -9 -9 -8 -8
-10 -10 -11 -11 -11 -11 -11 -11 -11 -11 -11 -10 -10 -10 -10 -10 -11 -10 -10 -10 -10 -10 -10 -10 -10 -10 -10 -11 -11 -11 -10 -10 -10 -9 -9 -9 -10 -10 -11 -11 -11 -8 -9 -9 -9 -9 -9
-10 -10 -10 -11 -11 -10 -11 -11 -11 -11 -11 -11 -11 -11 -11 -11 -11 -11 -10 -10 -10 -10 -10 -10 -10 -9 -9 -10 -10 -10 -10 -10 -10 -11 -9 -10 -9 -9 -9 -8 -8 -8 -9 -8 -8 -8 -9
Height
3041 3046 3049 3054 3058 3062 3066 3069 3073 3076 3079 3082 3085 3088 3090 3093 3096 3097 3099 3100 3101 3102 3103 3103 3104 3104 3104 3106 3114 3110 3109 3110 3110 3110 3110 3110 3109 3109 3106 3107 3107 3103 3102 3102 3102 3101 3101
3027 3032 3037 3042 3047 3052 3056 3060 3064 3067 3071 3074 3077 3080 3083 3086 3089 3090 3092 3094 3096 3095 3095 3096 3097 3097 3096 3098 3105 3104 3103 3104 3104 3105 3106 3104 3103 3103 3099 3099 3101 3099 3095 3093 3094 3096 3093
3012 3019 3024 3030 3036 3041 3046 3050 3054 3058 3061 3065 3068 3072 3075 3079 3082 3085 3086 3087 3088 3088 3089 3089 3089 3088 3087 3098 3096 3098 3098 3097 3098 3099 3100 3098 3096 3096 3094 3092 3094 3092 3087 3087 3088 3091 3087
2997 3004 3010 3017 3023 3029 3035 3040 3045 3048 3052 3055 3059 3064 3067 3071 3075 3078 3080 3082 3080 3081 3081 3082 3082 3082 3079 3090 3090 3091 3091 3093 3093 3093 3094 3093 3091 3089 3088 3090 3090 3087 3085 3077 3080 3084 3085
2980 2988 2996 3001 3009 3015 3021 3028 3034 3038 3042 3046 3049 3054 3058 3063 3067 3070 3072 3074 3071 3074 3074 3075 3077 3077 3076 3082 3082 3083 3085 3087 3087 3088 3089 3089 3086 3084 3083 3086 3083 3082 3076 3074 3072 3078 3081
2965 2972 2980 2986 2993 3002 3009 3015 3021 3026 3031 3035 3040 3045 3050 3055 3058 3062 3064 3065 3066 3066 3067 3070 3069 3075 3075 3077 3079 3077 3081 3083 3082 3082 3085 3085 3081 3076 3079 3080 3074 3076 3072 3069 3071 3076 3073
2944 2952 2963 2972 2980 2987 2995 3002 3009 3014 3020 3024 3030 3035 3041 3045 3049 3053 3056 3057 3060 3060 3060 3065 3064 3067 3065 3070 3073 3072 3075 3076 3076 3075 3077 3077 3073 3064 3069 3072 3073 3073 3068 3066 3068 3072 3070
2928 2938 2946 2956 2965 2974 2981 2987 2996 3002 3007 3013 3019 3025 3031 3035 3040 3044 3046 3047 3050 3054 3051 3054 3056 3055 3062 3062 3060 3068 3068 3068 3069 3068 3069 3067 3056 3063 3067 3067 3066 3064 3063 3057 3061 3064 3064
2910 2922 2929 2940 2949 2959 2966 2973 2980 2989 2995 3000 3007 3014 3020 3025 3030 3034 3037 3040 3044 3045 3045 3044 3048 3047 3056 3054 3050 3061 3059 3060 3059 3059 3061 3058 3056 3057 3059 3059 3061 3057 3061 3058 3060 3060 3057
2894 2903 2914 2925 2935 2944 2951 2959 2967 2975 2982 2989 2995 3001 3007 3013 3020 3023 3029 3034 3039 3040 3044 3037 3041 3038 3041 3043 3046 3044 3047 3049 3049 3050 3054 3050 3047 3050 3055 3054 3056 3045 3059 3058 3057 3059 3052
2880 2888 2898 2910 2921 2930 2937 2943 2951 2961 2967 2973 2981 2986 2994 3001 3009 3014 3023 3026 3031 3036 3044 3034 3030 3030 3033 3038 3039 3039 3042 3041 3043 3046 3051 3042 3044 3046 3048 3051 3052 3041 3052 3053 3052 3049 3052
2867 2873 2884 2896 2906 2914 2921 2927 2936 2943 2949 2958 2965 2975 2980 2988 2997 3004 3011 3018 3025 3034 3027 3024 3023 3025 3030 3032 3033 3035 3039 3040 3040 3040 3044 3041 3044 3042 3043 3047 3049 3048 3044 3045 3044 3040 3041
2851 2858 2865 2879 2890 2897 2905 2914 2924 2929 2936 2943 2951 2961 2968 2974 2984 2990 2998 3009 3023 3018 3016 3017 3018 3022 3025 3027 3030 3031 3035 3037 3039 3038 3039 3039 3038 3040 3041 3039 3045 3044 3045 3043 3034 3029 3020
2850 2848 2859 2865 2876 2884 2893 2901 2906 2913 2923 2933 2944 2952 2960 2968 2975 2983 2990 3002 3004 3001 3008 3011 3013 3017 3020 3022 3026 3027 3031 3034 3033 3036 3037 3036 3029 3035 3037 3039 3038 3036 3040 3039 3030 3018 3009
2848 2852 2857 2856 2861 2869 2878 2888 2896 2906 2915 2927 2936 2945 2954 2959 2967 2976 2982 2990 2990 2996 3001 3007 3010 3012 3015 3019 3022 3026 3027 3030 3031 3033 3038 3035 3029 3030 3033 3033 3037 3029 3024 3028 3023 3018 3011
2845 2850 2854 2861 2869 2873 2881 2888 2896 2904 2912 2921 2932 2942 2951 2956 2965 2972 2975 2978 2984 2989 2994 3000 3007 3010 3012 3015 3018 3022 3023 3026 3029 3031 3032 3035 3033 3026 3024 3027 3029 3028 3024 3019 3015 3005 2991
2841 2848 2852 2858 2862 2872 2880 2887 2894 2902 2910 2917 2932 2941 2946 2954 2966 2971 2968 2973 2980 2985 2990 2996 3002 3006 3010 3012 3015 3018 3020 3023 3024 3027 3029 3031 3032 3023 3023 3022 3022 3023 3022 3017 3013 3008 3003
2837 2843 2850 2853 2859 2867 2876 2885 2892 2901 2909 2915 2927 2936 2944 2953 2965 2966 2967 2972 2976 2981 2987 2992 2998 3001 3007 3007 3012 3016 3016 3018 3018 3021 3023 3025 3025 3021 3018 3018 3016 3019 3021 3017 3019 3007 3001
2836 2838 2847 2853 2860 2866 2874 2882 2890 2898 2904 2911 2924 2934 2941 2947 2955 2959 2962 2968 2975 2981 2985 2989 2992 2995 3002 3003 3009 3011 3012 3013 3014 3016 3017 3019 3019 3018 3016 3015 3013 3013 3015 3010 3009 3010 3001
2841 2842 2847 2853 2860 2866 2873 2880 2887 2895 2902 2911 2921 2929 2936 2943 2950 2954 2956 2965 2977 2978 2980 2982 2986 2991 2996 2998 3002 3005 3006 3009 3010 3012 3013 3013 3015 3017 3016 3014 3011 3009 3009 3004 3005 3001 2994
2846 2849 2851 2855 2861 2868 2875 2881 2888 2893 2900 2910 2915 2919 2926 2934 2941 2949 2957 2966 2973 2973 2974 2977 2980 2986 2992 2993 2996 2998 3002 3004 3005 3006 3008 3008 3004 3007 3009 3009 3005 3003 3002 2990 2995 2989 2991
2845 2851 2855 2859 2863 2869 2877 2884 2888 2893 2899 2906 2911 2918 2924 2930 2937 2948 2956 2962 2968 2969 2969 2973 2978 2984 2987 2987 2990 2991 2994 2997 2998 2998 2998 3002 2999 2999 3001 2999 2998 2997 2993 2983 2984 2981 2977
2845 2849 2855 2860 2864 2870 2874 2881 2887 2891 2897 2902 2909 2918 2926 2930 2936 2946 2950 2957 2960 2965 2968 2969 2975 2978 2980 2983 2986 2986 2985 2987 2991 2992 2992 2997 2999 2996 2993 2992 2990 2987 2982 2978 2974 2973 2971
2845 2847 2850 2856 2862 2867 2873 2878 2884 2889 2895 2902 2909 2916 2921 2927 2933 2941 2948 2953 2956 2962 2965 2967 2972 2974 2976 2977 2981 2982 2982 2983 2985 2986 2990 2989 2992 2993 2989 2986 2990 2975 2977 2973 2969 2961 2956
2841 2845 2848 2852 2857 2863 2869 2875 2880 2887 2892 2900 2905 2911 2917 2924 2931 2938 2945 2949 2951 2956 2958 2961 2968 2970 2969 2977 2979 2979 2978 2979 2978 2978 2981 2984 2986 2987 2985 2982 2977 2973 2970 2966 2962 2957 2951
2835 2839 2844 2848 2852 2858 2864 2869 2877 2884 2888 2897 2902 2908 2914 2922 2929 2936 2940 2945 2947 2949 2954 2958 2963 2965 2967 2974 2975 2977 2974 2976 2978 2976 2978 2980 2981 2981 2980 2979 2974 2967 2965 2962 2957 2950 2947
2827 2831 2837 2842 2846 2852 2859 2865 2873 2880 2885 2893 2898 2905 2912 2919 2926 2930 2936 2939 2944 2946 2951 2954 2957 2962 2963 2970 2972 2971 2972 2976 2975 2972 2973 2974 2975 2973 2972 2974 2967 2961 2960 2958 2955 2949 2941
2820 2823 2828 2835 2841 2847 2854 2861 2869 2876 2881 2888 2895 2902 2909 2915 2922 2927 2933 2938 2943 2945 2947 2957 2956 2957 2959 2965 2967 2969 2967 2971 2968 2967 2969 2970 2969 2966 2968 2968 2962 2956 2956 2955 2951 2942 2938
2811 2815 2820 2827 2835 2842 2849 2857 2864 2872 2879 2886 2895 2902 2907 2913 2917 2923 2929 2935 2940 2942 2947 2953 2955 2952 2953 2960 2960 2963 2963 2965 2966 2963 2964 2963 2960 2960 2960 2955 2953 2951 2949 2947 2943 2939 2934
Wind_Speed
57 56 52 51 49 48 45 44 42 40 40 39 38 37 35 35 33 31 30 31 32 32 34 36 35 34 36 35 25 25 29 30 28 27 26 24 25 24 27 27 28 31 33 34 35 34 33
61 59 57 55 52 50 48 47 45 43 43 41 42 40 39 38 38 35 33 32 34 35 36 38 37 36 37 37 27 25 23 23 22 24 22 23 25 28 32 33 32 33 35 37 36 34 35
64 62 60 58 56 54 51 50 48 47 46 46 45 44 43 41 39 37 35 33 35 36 38 39 38 38 40 28 29 26 25 25 26 24 20 23 26 28 33 31 29 32 36 36 36 34 38
68 66 65 62 60 58 55 53 51 50 50 49 48 47 45 43 42 39 37 38 34 36 39 40 38 40 41 27 27 27 28 26 26 25 24 25 27 30 33 32 34 37 39 46 38 31 30
73 70 69 66 66 63 59 56 55 54 52 52 49 49 46 44 43 40 39 37 33 38 39 39 40 36 36 27 23 21 16 15 14 15 17 19 24 30 33 30 35 32 40 45 46 33 27
73 72 73 67 71 65 62 60 59 56 55 53 52 51 48 46 42 41 40 35 37 38 40 40 40 34 26 20 16 20 13 14 16 21 23 28 32 35 34 32 35 35 35 43 38 31 22
68 69 69 72 68 66 66 64 64 61 60 57 56 52 49 45 45 43 41 38 38 41 42 39 35 29 21 25 28 30 31 30 25 27 28 28 33 41 37 36 35 36 42 43 40 35 35
76 69 72 71 75 72 66 66 66 68 61 60 59 58 52 49 48 46 42 41 42 41 41 40 39 40 33 34 37 30 29 30 33 35 30 31 44 38 33 33 35 36 39 47 42 25 19
71 72 72 71 70 70 74 73 68 67 65 64 62 61 59 54 51 48 44 43 39 37 38 44 41 44 35 38 41 31 33 34 39 40 39 40 33 11 11 17 20 32 38 40 39 35 35
71 75 77 74 67 68 70 72 68 66 68 69 64 62 62 58 55 49 46 43 37 34 25 30 30 28 27 28 27 19 24 31 37 42 43 37 38 40 39 39 31 46 32 30 28 29 24
63 73 80 72 72 65 61 72 67 74 76 74 71 67 62 59 56 52 45 39 31 27 3 10 13 11 12 11 11 10 10 10 10 14 23 28 28 31 26 22 16 34 28 32 35 35 29
53 56 81 75 73 67 65 71 65 76 80 72 68 64 61 62 58 48 38 30 24 13 9 9 11 14 15 15 13 10 7 6 5 12 19 26 25 29 27 32 27 26 28 26 30 35 20
35 38 58 72 67 63 79 63 71 76 79 73 73 64 58 56 55 51 35 29 17 12 8 11 14 15 15 13 12 9 8 7 8 9 18 25 30 30 27 29 29 32 37 11 6 7 15
12 28 51 62 65 73 77 77 78 80 74 66 53 46 43 45 44 38 39 37 13 15 19 14 15 17 16 14 12 8 9 10 13 14 18 13 25 3 5 5 14 19 17 16 5 13 19
31 25 39 54 63 69 71 67 61 58 52 39 35 35 36 41 45 45 39 29 16 13 25 22 17 13 11 10 10 11 13 13 17 16 11 8 21 26 22 28 29 31 23 28 37 43 30
36 25 30 44 41 39 38 37 36 36 36 35 32 30 29 31 34 34 41 23 16 20 20 21 14 13 13 12 6 4 4 5 7 5 7 8 19 26 26 20 11 11 22 16 17 6 14
30 27 32 30 30 36 32 33 34 38 40 39 37 36 33 34 31 40 39 31 17 20 18 14 12 11 8 8 7 8 6 6 12 11 12 15 18 34 35 15 24 30 21 11 14 9 4
30 21 29 22 27 31 34 34 35 38 40 42 43 39 36 34 38 37 37 31 22 27 18 15 16 16 15 14 17 17 14 16 21 25 22 21 14 20 31 32 25 18 13 21 12 9 15
19 25 32 37 41 37 33 36 40 41 44 45 41 38 36 37 39 36 35 34 25 24 23 22 17 13 15 15 10 9 13 16 17 17 8 15 6 8 11 9 11 12 24 26 25 23 20
14 26 23 29 32 32 32 35 40 40 40 39 43 31 32 37 41 37 36 30 29 28 26 21 17 18 19 18 17 13 15 15 15 18 20 24 19 15 11 19 19 27 28 30 25 16 26
6 6 31 33 33 30 37 42 40 40 41 42 47 36 39 40 42 37 31 21 32 25 17 16 19 21 18 21 21 25 26 23 27 29 27 21 19 19 23 26 28 30 35 33 31 37 25
13 11 14 15 22 29 32 35 36 36 38 42 42 39 38 18 32 30 30 34 28 20 23 23 21 19 19 25 24 25 24 27 29 22 25 24 21 21 26 29 28 29 32 34 35 35 28
11 15 23 25 23 21 25 28 30 35 35 38 37 36 29 30 25 29 33 29 25 21 19 21 19 19 21 25 23 22 21 24 25 18 14 19 20 16 23 22 14 16 35 30 29 31 28
12 13 16 23 32 28 28 27 29 36 39 37 35 36 34 26 30 29 25 21 19 18 17 16 17 15 16 12 14 14 17 17 17 15 18 22 21 13 18 20 3 25 15 25 31 34 29
18 18 19 20 24 27 35 33 30 31 36 37 36 37 36 31 25 25 24 20 17 19 20 17 14 11 7 12 8 7 7 9 13 15 20 22 22 12 6 10 21 33 15 13 20 24 25
20 23 23 23 24 28 28 30 35 34 34 33 36 34 33 30 29 23 21 20 21 21 21 17 12 12 12 14 10 5 4 4 4 5 11 11 10 16 10 6 6 20 20 28 33 33 19
23 23 25 27 27 28 30 32 38 35 35 33 33 34 30 26 23 21 23 23 24 23 19 16 16 22 17 16 12 6 6 6 6 6 9 14 13 21 26 12 16 22 20 26 11 14 19
22 25 28 28 29 30 30 31 34 36 31 31 31 30 26 26 22 23 22 19 18 19 18 18 24 23 20 16 11 10 8 9 9 14 13 15 11 14 13 10 10 13 23 23 30 31 19
25 26 28 31 31 30 31 32 32 36 35 33 28 26 28 25 18 22 23 27 21 18 21 20 24 19 19 15 15 9 9 11 16 16 17 21 24 16 16 19 25 27 24 27 26 32 26
Wind_Direction
242 242 239 239 238 237 237 237 238 237 239 240 241 243 244 246 247 247 251 254 258 263 267 269 271 272 274 273 279 272 274 279 281 279 279 282 283 283 280 282 279 276 285 282 283 284 284
241 239 239 237 236 236 236 236 237 237 238 240 241 242 244 245 248 248 250 254 260 262 264 268 270 271 271 274 283 274 273 275 276 277 279 279 280 277 279 279 279 287 284 282 282 286 285
239 241 237 237 236 235 235 237 238 238 239 240 241 243 244 246 248 251 253 254 259 263 266 267 268 269 269 277 276 276 274 270 269 271 274 274 269 268 272 275 279 282 283 281 281 287 286
238 237 237 235 235 235 236 236 237 239 239 240 242 243 245 246 250 252 254 256 254 263 265 265 268 268 270 279 273 275 273 272 268 269 266 259 263 260 263 269 274 275 279 282 289 292 295
239 234 237 235 233 232 232 235 237 238 240 241 242 243 244 247 249 252 252 255 259 260 262 265 266 271 281 278 277 275 274 272 268 253 254 252 262 265 262 268 272 272 272 277 283 292 295
236 239 234 239 234 233 233 234 235 238 239 242 242 243 244 245 247 249 253 256 258 260 260 262 267 272 275 276 271 267 271 259 266 266 263 270 271 261 262 257 255 271 275 285 289 302 292
228 234 238 234 238 234 237 233 238 238 240 240 240 240 242 244 245 248 251 253 256 259 260 263 262 265 261 270 271 270 275 277 269 263 267 276 267 259 269 275 280 279 275 277 283 290 290
238 236 233 237 235 237 238 235 238 240 238 238 238 241 241 243 244 247 247 249 253 259 265 263 264 264 267 272 266 268 276 270 270 269 268 267 265 273 276 277 274 271 273 276 286 290 302
225 230 229 236 234 238 236 237 239 238 236 235 236 239 240 241 244 244 245 248 252 256 264 264 265 268 269 264 269 271 259 259 262 262 263 263 253 281 266 275 277 275 271 285 283 294 295
220 221 228 230 234 238 239 234 234 240 235 237 236 238 239 235 239 239 241 244 247 251 265 272 276 262 261 253 255 258 244 247 245 254 257 266 270 263 265 267 262 274 281 285 289 296 287
247 228 229 232 234 232 238 233 239 241 232 226 231 234 233 238 239 238 238 235 236 240 284 250 222 223 208 192 203 195 213 227 244 254 240 248 269 273 271 279 271 274 284 280 284 280 287
249 243 236 235 235 237 239 234 241 228 222 222 231 228 228 235 235 232 222 218 211 188 232 217 204 200 196 195 203 211 217 235 257 269 266 269 264 268 275 280 281 284 279 280 279 273 256
241 236 226 227 225 237 234 239 231 224 214 219 222 220 219 223 227 224 205 194 180 205 196 204 201 192 198 196 206 226 255 274 276 293 281 280 276 279 279 278 278 272 275 289 277 222 248
178 218 217 220 224 231 226 215 208 207 209 213 215 218 226 230 216 197 188 183 195 228 203 191 188 192 202 207 231 249 268 274 269 261 275 290 303 328 59 298 291 291 280 239 280 272 278
224 203 171 171 178 185 193 191 191 201 203 207 209 210 211 207 202 200 199 196 209 189 198 205 196 190 203 232 233 245 258 264 263 259 259 277 267 268 271 280 283 285 263 280 256 260 267
211 197 211 220 208 202 206 205 204 197 193 191 190 185 194 202 203 181 180 185 187 185 193 199 202 203 203 218 214 224 206 225 248 290 313 299 296 293 291 315 289 292 285 280 259 270 262
205 217 206 203 206 200 192 192 195 199 195 181 180 176 185 184 185 186 192 198 190 184 175 178 205 219 228 244 251 268 227 263 270 283 289 302 300 286 291 307 310 311 316 319 316 301 7
156 192 218 213 208 210 208 203 201 198 183 178 180 179 187 189 188 195 201 203 196 204 201 225 240 241 249 261 279 280 268 275 285 294 295 291 279 277 286 294 287 294 264 325 325 318 299
205 178 170 184 189 202 201 197 192 192 189 188 187 186 187 187 194 199 204 209 215 221 224 231 234 246 254 263 269 266 278 282 295 290 288 297 274 306 302 286 257 286 301 303 312 312 284
121 175 177 185 189 189 192 188 187 188 191 193 184 174 176 188 199 206 205 210 221 226 234 237 237 252 257 259 264 262 266 287 272 253 293 288 277 251 243 280 292 292 296 294 296 273 268
288 150 171 169 178 187 178 175 179 184 187 190 187 183 184 201 204 209 211 220 221 219 226 234 242 246 259 265 266 266 275 276 270 276 275 259 253 263 276 283 288 287 289 292 274 275 256
234 219 194 167 171 182 185 187 179 186 192 196 195 193 194 192 202 201 206 218 228 223 232 245 256 265 263 260 263 272 270 268 277 273 256 239 252 260 272 282 285 284 279 284 289 288 280
233 219 205 199 194 189 187 192 198 197 199 202 207 205 203 201 199 206 216 222 227 232 241 251 257 258 260 266 272 271 274 267 251 242 241 246 249 263 270 285 295 280 285 292 284 284 292
229 226 219 211 207 197 206 197 192 202 204 204 206 206 204 201 208 214 220 222 225 235 241 241 246 248 276 245 248 251 259 256 257 245 240 246 248 246 271 293 252 286 291 290 279 291 297
226 223 225 220 216 216 210 205 203 198 203 206 208 209 211 204 211 215 224 226 222 223 225 225 219 229 253 227 221 243 242 252 254 252 246 247 248 242 239 255 280 291 280 322 307 295 296
239 229 224 222 221 218 218 210 209 206 207 206 211 215 217 219 223 230 227 235 230 213 205 206 207 217 202 201 201 222 215 211 226 182 197 213 226 237 232 244 257 276 279 307 302 278 275
247 236 226 220 219 222 216 207 206 201 204 204 210 217 221 223 227 227 230 228 214 199 202 204 204 195 195 206 211 231 239 235 225 202 201 210 232 231 244 246 270 275 284 299 289 292 307
242 237 226 221 215 215 214 211 207 207 206 207 208 202 200 203 195 197 192 191 201 205 208 204 188 200 204 204 217 230 240 252 256 252 237 224 215 227 229 229 267 304 309 308 314 319 308
242 231 224 215 212 209 210 207 208 207 206 210 211 215 218 224 228 220 225 231 217 218 222 219 215 217 207 209 218 227 238 259 264 250 249 238 243 252 229 257 283 303 307 302 298 301 304